Minot AFB, ND

5:52 AM CDT on October 16, 2019 (GMT -0500)
Minot Air Force Base

Weather History for KMIB - August, 2019

Change the Weather History Date:

Saturday, August 3, 2019

  Actual Average Record
Temperature  
Mean Temperature 73 °F -  
Max Temperature 87 °F 79 °F 98 °F (2018)
Min Temperature 59 °F 55 °F 47 °F (2017)
Cooling Degree Days 8    
Growing Degree Days 23 (Base 50)    
Moisture  
Dew Point 64 °F    
Average Humidity 75    
Maximum Humidity 98    
Minimum Humidity 44    
Precipitation  
Precipitation 0.00 in - - ()
Sea Level Pressure  
Sea Level Pressure 29.98 in    
Wind  
Wind Speed 5 mph (South)    
Max Wind Speed 15 mph    
Max Gust Speed 20 mph    
Visibility 10 miles    
Events      
Averages and records for this station are not official NWS values.
T = Trace of Precipitation, MM = Missing Value Source: NWS Daily Summary

Daily Weather History Graph

Daily Weather History Graph

Search for Another Location

Airport or City:

Astronomy

Aug. 03, 2019 Rise Set
Actual Time 6:22 AM CDT 9:19 PM CDT
Civil Twilight 5:46 AM CDT 9:56 PM CDT
Nautical Twilight 4:58 AM CDT 10:42 PM CDT
Astronomical Twilight 4:01 AM CDT 11:39 PM CDT
Moon 9:28 AM CDT (8/3) 11:11 PM CDT (8/3)
Length of Visible Light 16h 09m
Length of Day
14h 57m
Waxing Crescent, 10% of the Moon is Illuminated
Aug 3
Waxing Crescent
Aug 7
First Quarter
Aug 15
Full
Aug 23
Last Quarter
Aug 30
New

Hourly Weather History & Observations

Time (CDT) Temp. Heat Index Dew Point Humidity Pressure Visibility Wind Dir Wind Speed Gust Speed Precip Events Conditions
12:56 AM 67.8 °F - 64.8 °F 90% 30.05 in 10.0 mi South 4.6 mph - N/A   Clear
1:56 AM 66.9 °F - 64.2 °F 91% 30.05 in 10.0 mi South 4.6 mph - N/A   Clear
2:56 AM 64.9 °F - 63.1 °F 94% 30.04 in 10.0 mi Calm Calm - N/A   Clear
3:56 AM 63.9 °F - 62.4 °F 95% 30.04 in 10.0 mi SSE 5.8 mph - N/A   Clear
4:56 AM 62.6 °F - 61.3 °F 96% 30.04 in 10.0 mi Calm Calm - N/A   Clear
5:56 AM 61.0 °F - 60.1 °F 97% 30.04 in 10.0 mi South 3.5 mph - N/A   Clear
6:36 AM 60.8 °F - 59.0 °F 94% 30.04 in 1.9 mi SE 3.5 mph - N/A   Clear
6:46 AM 60.8 °F - 59.0 °F 94% 30.04 in 10.0 mi Calm Calm - N/A   Clear
6:56 AM 59.9 °F - 59.4 °F 98% 30.04 in 10.0 mi SSE 3.5 mph - N/A   Clear
7:56 AM 65.1 °F - 64.6 °F 98% 30.03 in 10.0 mi SSE 3.5 mph - N/A   Clear
8:56 AM 72.5 °F - 66.9 °F 83% 30.04 in 10.0 mi South 3.5 mph - N/A   Clear
9:56 AM 77.5 °F - 66.0 °F 68% 30.03 in 10.0 mi SSW 6.9 mph - N/A   Clear
10:56 AM 80.6 °F 82.4 °F 65.3 °F 59% 30.02 in 10.0 mi South 8.1 mph - N/A   Clear
11:56 AM 82.8 °F 84.2 °F 63.9 °F 53% 29.99 in 10.0 mi SSW 6.9 mph - N/A   Clear
12:56 PM 85.5 °F 86.8 °F 64.6 °F 49% 29.97 in 10.0 mi SSW 5.8 mph - N/A   Clear
1:56 PM 86.0 °F 86.8 °F 62.8 °F 46% 29.95 in 10.0 mi South 10.4 mph - N/A   Clear
2:56 PM 86.5 °F 87.0 °F 62.1 °F 44% 29.95 in 10.0 mi South 9.2 mph - N/A   Clear
3:56 PM 87.3 °F 88.9 °F 64.6 °F 47% 29.93 in 10.0 mi South 11.5 mph 19.6 mph N/A   Clear
4:56 PM 87.4 °F 88.5 °F 63.5 °F 45% 29.91 in 10.0 mi South 15.0 mph 18.4 mph N/A   Clear
5:56 PM 83.1 °F 85.7 °F 66.7 °F 58% 29.91 in 10.0 mi South 10.4 mph - N/A   Clear
6:56 PM 79.0 °F - 67.1 °F 67% 29.90 in 10.0 mi SSE 6.9 mph - N/A   Clear
7:56 PM 77.0 °F - 66.4 °F 70% 29.91 in 10.0 mi SSW 4.6 mph - N/A   Clear
8:56 PM 78.4 °F - 66.0 °F 66% 29.91 in 10.0 mi SW 4.6 mph - N/A   Clear
9:56 PM 71.6 °F - 65.5 °F 81% 29.91 in 10.0 mi South 6.9 mph - N/A   Clear
10:56 PM 70.9 °F - 65.8 °F 84% 29.90 in 10.0 mi South 8.1 mph - N/A   Clear
11:56 PM 69.4 °F - 66.4 °F 90% 29.90 in 10.0 mi South 8.1 mph - N/A   Clear